C/2022 A1 ( Sarneczky )

Japanese version
Home page
Updated on January 14, 2022

---------------------------------------------------------------------

* Profile

Discovery Date January 2, 2022
Magnitude 18.2 mag
Discoverer Krisztian Sarneczky (Piszkesteto Observatory, Hungary)

* Pictures

* Orbital Elements

Epoch 2022 Jan. 21.0 TT = JDT 2459600.5                                         
T 2022 Jan. 31.10132 TT                                 Rudenko                 
q   1.2531109            (2000.0)            P               Q                  
z  -0.0014416      Peri.  201.15482     -0.09414814     +0.49816426             
 +/-0.0097570      Node   285.52064     +0.99246588     +0.11515165             
e   1.0018065      Incl.  116.54575     +0.07840663     -0.85940239             
From 203 observations 2022 Jan. 2-7, mean residual 0".4.                        

* Magnitudes Graph

        m1 = 18.5 + 5 log d + 10.0 log r

---------------------------------------------------------------------

The orbital elements are published on M.P.E.C. 2022-A59.
The magnitudes graphs are made with Comet for Windows.

---------------------------------------------------------------------

Copyright(C) Seiichi Yoshida (comet@aerith.net). All rights reserved.